EW9033 Weather Reports


time (UTC)temp
F
wind
direction
speed
knots
gust
knots
rain 1hr
in
rain 24hr
in
rain mn
in
humidity
%
barometer
mb
20260503190504 55 313 5.2 15.6 0.00 0.08 0.08 38 1014.0
20260503190008 56 202 8.7 15.6 0.00 0.08 0.08 40 1014.0
20260503185503 55 245 7.0 12.2 0.00 0.08 0.08 38 1014.2
20260503185004 55 259 5.2 10.4 0.00 0.08 0.08 41 1014.2
20260503184506 55 199 5.2 12.2 0.00 0.08 0.08 39 1014.3
20260503184004 56 284 5.2 16.5 0.00 0.08 0.08 37 1014.3
20260503183503 56 307 7.0 16.5 0.00 0.08 0.08 41 1014.3
20260503183009 55 242 6.1 12.2 0.00 0.08 0.08 39 1014.4
20260503182505 55 225 2.6 12.2 0.00 0.08 0.08 39 1014.5
20260503182003 55 200 4.3 9.6 0.00 0.08 0.08 44 1014.5
20260503181508 55 234 3.5 13.0 0.00 0.08 0.08 40 1014.5
20260503181005 55 271 3.5 13.0 0.00 0.08 0.08 40 1014.5
20260503180507 55 296 3.5 11.3 0.00 0.08 0.08 39 1014.6
20260503180010 55 313 4.3 12.2 0.00 0.08 0.08 39 1014.6
20260503175504 55 256 7.0 14.8 0.00 0.08 0.08 41 1014.8
20260503175004 55 223 7.0 14.8 0.00 0.08 0.08 42 1014.8
20260503174507 55 229 1.7 12.2 0.00 0.08 0.08 45 1014.9
20260503174006 54 271 2.6 14.8 0.00 0.08 0.08 42 1015.0
20260503173503 54 268 5.2 14.8 0.00 0.08 0.08 41 1015.2
20260503173008 54 283 7.0 13.9 0.00 0.08 0.08 38 1015.0
20260503172505 54 5 6.1 12.2 0.00 0.08 0.08 39 1015.1
20260503172003 53 290 1.7 12.2 0.01 0.08 0.08 41 1015.3
20260503171508 53 162 6.1 15.6 0.01 0.08 0.08 41 1015.4
20260503171003 53 170 5.2 15.6 0.01 0.08 0.08 40 1015.4
20260503170504 53 284 5.2 13.0 0.01 0.08 0.08 41 1015.5
20260503150503 49 209 4.3 11.3 0.01 0.07 0.07 44 1016.4
20260503131005 42 216 1.7 7.0 0.03 0.04 0.04 74 1017.0
20260503110504 29 343 0.0 0.0 0.00 0.00 0.00 94 1016.0
20260503090504 29 343 0.0 0.0 0.00 0.00 0.00 93 1015.4
20260503081523 30 343 0.0 0.0 0.00 0.00 0.00 92 1015.5
20260503081007 31 343 0.0 0.0 0.00 0.00 0.00 92 1015.4
20260503080507 31 343 0.0 0.0 0.00 0.00 0.00 92 1015.4
20260503072505 32 343 0.0 0.0 0.00 0.00 0.00 92 1015.2
20260503072013 32 343 0.0 0.0 0.00 0.00 0.00 92 1015.3
20260503071518 32 343 0.0 0.0 0.00 0.00 0.00 92 1015.2
20260503071005 32 343 0.0 0.0 0.00 0.00 0.00 92 1015.3
20260503070507 32 343 0.0 0.0 0.00 0.00 0.00 92 1015.3
20260503055009 33 343 0.0 0.0 0.00 0.00 0.00 91 1015.4
20260503054520 33 343 0.0 0.0 0.00 0.00 0.00 91 1015.4
20260503054006 33 343 0.0 0.0 0.00 0.00 0.00 91 1015.5
20260503053508 33 343 0.0 0.0 0.00 0.00 0.00 91 1015.5
20260503053023 33 343 0.0 0.0 0.00 0.00 0.00 91 1015.6
20260503052002 33 343 0.0 0.0 0.00 0.00 0.00 90 1015.6
20260503051511 33 343 0.0 0.0 0.00 0.00 0.00 90 1015.6
20260503045004 33 343 0.0 0.0 0.00 0.00 0.00 90 1015.7
20260503044508 33 343 0.0 0.0 0.00 0.00 0.00 90 1015.7
20260503044003 33 343 0.0 0.0 0.00 0.00 0.00 90 1015.7
20260503043502 33 343 0.0 0.0 0.00 0.00 0.00 90 1015.7
20260503043029 33 343 0.0 0.0 0.00 0.00 0.00 89 1015.8
20260503042506 33 343 0.0 0.0 0.00 0.00 0.00 89 1015.8
20260503042003 33 343 0.0 0.0 0.00 0.00 0.00 88 1015.8
20260503041507 33 343 0.0 0.0 0.00 0.00 0.00 88 1015.8
20260503041007 33 343 0.0 0.0 0.00 0.00 0.00 88 1015.9
20260503040504 33 343 0.0 0.0 0.00 0.00 0.00 88 1015.8
20260503040008 33 343 0.0 0.0 0.00 0.00 0.00 88 1015.8
20260503035003 33 343 0.0 0.0 0.00 0.00 0.00 87 1015.9
20260503034003 34 343 0.0 0.0 0.00 0.00 0.00 86 1015.8
20260503033504 34 343 0.0 0.0 0.00 0.00 0.00 86 1015.8
20260503033016 34 343 0.0 0.0 0.00 0.00 0.00 85 1015.8
20260503032504 34 343 0.0 0.0 0.00 0.00 0.00 85 1015.8
20260503032002 35 343 0.0 0.0 0.00 0.00 0.00 84 1015.8
20260503031508 35 343 0.0 0.0 0.00 0.00 0.00 84 1015.8
20260503031002 35 343 0.0 0.0 0.00 0.00 0.00 84 1015.9
20260503030501 36 343 0.0 0.0 0.00 0.00 0.00 84 1015.9
20260503030007 36 343 0.0 0.0 0.00 0.00 0.00 83 1015.9
20260503025503 36 343 0.0 0.0 0.00 0.00 0.00 82 1015.9
20260503025003 36 343 0.0 0.0 0.00 0.00 0.00 82 1015.9
20260503024516 37 343 0.0 0.0 0.00 0.00 0.00 82 1015.9
20260503024004 37 343 0.0 0.0 0.00 0.00 0.00 82 1015.9
20260503023505 37 343 0.0 0.0 0.00 0.00 0.00 81 1016.0
20260503023006 37 343 0.0 0.0 0.00 0.00 0.00 81 1016.0
20260503022503 37 343 0.0 0.0 0.00 0.00 0.00 81 1016.1
20260503022004 37 343 0.0 0.0 0.00 0.00 0.00 80 1016.1
20260503021524 37 343 0.0 0.0 0.00 0.00 0.00 79 1016.1
20260503021003 37 343 0.0 0.0 0.00 0.00 0.00 78 1016.1
20260503020502 37 343 0.0 0.0 0.00 0.00 0.00 78 1016.0
20260503020007 38 343 0.0 0.0 0.00 0.00 0.00 78 1016.1
20260503015506 38 343 0.0 0.0 0.00 0.00 0.00 77 1016.0
20260503015004 38 343 0.0 0.0 0.00 0.00 0.00 75 1016.0
20260503014505 38 343 0.0 0.0 0.00 0.00 0.00 73 1016.0
20260503014003 38 343 0.0 0.0 0.00 0.00 0.00 72 1016.0
20260503013503 38 343 0.0 0.9 0.00 0.00 0.00 72 1016.0
20260503013008 39 343 0.0 0.9 0.00 0.00 0.00 72 1016.0
20260503012503 39 343 0.0 0.9 0.00 0.00 0.00 71 1016.0
20260503012003 39 343 0.0 0.9 0.00 0.00 0.00 71 1016.0
20260503011506 39 343 0.0 0.9 0.00 0.00 0.00 70 1016.0
20260503011007 39 343 0.0 1.7 0.00 0.00 0.00 70 1015.9
20260503010504 39 343 0.0 1.7 0.00 0.00 0.00 70 1015.9
20260503010006 40 321 0.0 3.5 0.00 0.00 0.00 70 1016.0
20260503005504 40 312 0.9 3.5 0.00 0.00 0.00 69 1015.9
20260503005003 40 315 0.9 3.5 0.00 0.00 0.00 69 1015.9
20260503004508 40 319 0.0 7.0 0.00 0.00 0.00 69 1015.8
20260503004004 40 325 1.7 7.0 0.00 0.00 0.00 68 1015.7
20260503003503 40 15 2.6 7.8 0.00 0.00 0.00 68 1015.7
20260503003011 40 336 2.6 7.8 0.00 0.00 0.00 68 1015.6
20260503002503 40 5 1.7 5.2 0.00 0.00 0.00 68 1015.5
20260503002003 40 324 0.9 3.5 0.00 0.00 0.00 68 1015.4
20260503001505 41 360 0.9 4.3 0.00 0.00 0.00 67 1015.3
20260503001004 41 335 0.9 4.3 0.00 0.00 0.00 67 1015.4
20260503000503 41 321 0.9 4.3 0.00 0.00 0.00 67 1015.3
20260503000009 41 322 0.9 4.3 0.00 0.00 0.00 67 1015.2
20260502235503 41 346 1.7 4.3 0.00 0.00 0.00 67 1015.2
20260502235005 41 360 0.9 4.3 0.00 0.00 0.00 67 1015.2
20260502234507 41 307 1.7 4.3 0.00 0.00 0.00 67 1015.2
20260502234003 41 338 2.6 4.3 0.00 0.00 0.00 67 1015.1
20260502233503 41 329 1.7 3.5 0.00 0.00 0.00 68 1015.1
20260502233007 41 285 0.0 6.1 0.00 0.00 0.00 67 1015.1
20260502232503 41 360 1.7 6.1 0.00 0.00 0.00 67 1015.1
20260502232003 41 296 0.9 6.1 0.00 0.00 0.00 68 1015.1
20260502231513 41 331 0.9 6.1 0.00 0.00 0.00 68 1015.1
20260502231003 41 286 0.9 7.8 0.00 0.00 0.00 68 1015.1
20260502230504 41 314 1.7 7.8 0.00 0.00 0.00 68 1015.1
20260502230009 41 287 3.5 7.8 0.00 0.00 0.00 67 1015.2
20260502225504 41 309 4.3 7.8 0.00 0.00 0.00 67 1015.2
20260502225004 41 328 1.7 4.3 0.00 0.00 0.00 70 1015.2
20260502224505 41 305 0.9 6.1 0.00 0.00 0.00 70 1015.2
20260502224005 41 331 2.6 6.1 0.00 0.00 0.00 70 1015.2
20260502223020 41 329 1.7 7.0 0.00 0.00 0.00 71 1015.1
20260502222510 41 271 3.5 6.1 0.00 0.00 0.00 70 1015.1
20260502222011 41 310 0.9 6.1 0.00 0.00 0.00 71 1015.2
20260502221521 41 311 0.9 4.3 0.00 0.00 0.00 71 1015.2
20260502221007 41 318 0.9 3.5 0.00 0.00 0.00 72 1015.2
20260502220511 41 335 0.9 6.1 0.00 0.00 0.00 71 1015.2
20260502220025 41 344 1.7 6.1 0.00 0.00 0.00 70 1015.2
20260502215507 41 327 2.6 7.8 0.00 0.00 0.00 70 1015.1
20260502215010 41 315 1.7 7.8 0.00 0.00 0.00 70 1015.1
20260502214523 41 337 2.6 7.0 0.00 0.00 0.00 70 1015.1
20260502213023 42 319 1.7 9.6 0.00 0.00 0.00 69 1015.0
20260502212508 42 333 2.6 9.6 0.00 0.00 0.00 69 1014.9
20260502212009 42 352 3.5 9.6 0.00 0.00 0.00 68 1014.9
20260502211522 42 308 4.3 9.6 0.00 0.00 0.00 68 1014.7
20260502211009 42 315 2.6 8.7 0.00 0.00 0.00 68 1014.7
20260502210508 43 317 3.5 8.7 0.00 0.00 0.00 68 1014.6
20260502210023 43 309 2.6 10.4 0.00 0.00 0.00 67 1014.6
20260502205510 44 335 4.3 11.3 0.00 0.00 0.00 67 1014.6
20260502205012 43 294 6.1 11.3 0.00 0.00 0.00 69 1014.7
20260502204533 42 20 3.5 11.3 0.00 0.00 0.00 69 1014.7
20260502204007 42 348 4.3 9.6 0.00 0.00 0.00 68 1014.7
20260502203509 43 21 4.3 8.7 0.00 0.00 0.00 69 1014.8
20260502203023 43 325 2.6 9.6 0.00 0.00 0.00 72 1014.9
20260502201526 41 326 5.2 10.4 0.00 0.00 0.00 73 1014.9
20260502201007 41 42 3.5 11.3 0.00 0.00 0.00 74 1015.0
20260502200511 41 322 6.1 11.3 0.00 0.00 0.00 76 1015.0
20260502200040 41 360 5.2 11.3 0.00 0.00 0.00 77 1015.0
20260502195509 41 30 5.2 11.3 0.00 0.00 0.00 76 1015.0
20260502195009 41 35 5.2 11.3 0.00 0.00 0.00 77 1015.0
20260502194521 41 325 3.5 8.7 0.00 0.00 0.00 77 1015.1
20260502194009 41 296 3.5 12.2 0.00 0.00 0.00 76 1015.1
20260502193508 41 331 5.2 12.2 0.00 0.00 0.00 75 1015.1
20260502193024 41 317 3.5 11.3 0.00 0.00 0.00 74 1015.1
20260502192505 42 360 4.3 11.3 0.00 0.00 0.00 73 1015.1